Theta_e
290 290 290 290 290 290 290 290 290 290 290 289 289 289 289 289 289 289 289 289 289 289 289 289 289 289 289 289 289 289 289 289 289 289 289 289 288 288 288 288 288 288 288 289 289 288 289 290 291 293 294 295 296 296 296 296 296 296 296 296 296 296 296 295 295 295 295 295 294 294 294 294 294 295 295 295 295 295 295 295 295 295 296 296 297
290 290 290 290 290 290 290 289 289 289 289 289 289 289 289 289 289 289 289 289 289 288 288 288 288 288 289 289 289 289 289 289 289 289 289 289 289 289 289 288 288 288 288 288 288 288 288 288 288 289 290 291 293 294 295 296 296 296 296 296 296 296 296 295 295 295 295 295 295 295 294 294 294 294 295 295 295 295 295 295 295 295 295 296 296
290 290 290 290 290 290 289 289 289 289 289 289 288 288 288 288 288 288 288 288 288 287 287 287 287 287 288 288 288 288 288 288 288 288 288 288 288 288 288 288 288 288 288 288 288 288 288 288 288 287 287 288 289 290 292 294 295 295 295 295 295 295 295 295 295 295 295 295 295 295 295 295 294 294 294 294 295 295 295 295 295 295 295 295 296
290 290 290 290 290 290 289 289 289 289 288 288 288 288 288 288 288 287 287 287 287 286 287 287 287 287 287 287 287 287 287 287 287 287 287 287 287 287 287 287 287 288 288 288 288 288 288 288 288 287 287 287 287 287 288 289 291 293 294 295 295 295 295 295 294 294 294 294 295 295 295 295 295 295 294 294 294 294 295 295 295 295 295 295 295
289 289 289 290 290 289 289 289 289 289 288 288 288 288 287 287 287 287 286 286 286 286 286 286 286 286 286 286 286 286 287 287 287 287 287 287 287 287 287 287 287 287 287 287 287 287 287 287 287 287 287 287 287 287 287 287 287 289 291 292 294 295 295 294 294 294 294 294 294 294 294 295 295 295 295 294 294 294 294 294 295 295 295 295 295
289 289 289 289 289 289 289 289 289 289 288 288 288 287 287 287 286 286 286 286 286 286 286 286 286 286 286 286 286 286 286 286 286 286 286 286 286 286 286 286 286 286 286 286 286 286 286 287 287 287 287 287 287 287 287 287 286 287 287 288 290 292 294 294 294 294 293 294 294 293 293 294 294 295 295 295 294 294 293 294 294 294 295 295 295
290 289 289 289 289 289 289 289 289 288 288 288 287 287 286 286 286 286 286 286 286 286 285 286 286 285 286 286 285 285 285 285 285 285 285 285 285 285 285 285 286 286 286 286 286 286 286 286 286 286 286 286 287 287 287 287 287 287 286 286 287 288 291 293 294 293 293 293 294 293 293 293 293 294 294 294 294 294 293 293 293 293 294 294 295
290 290 289 289 289 290 289 289 289 288 288 287 287 286 286 285 285 285 285 285 285 285 285 285 285 285 285 285 285 285 285 285 285 284 284 284 283 283 283 284 284 284 285 285 285 285 286 286 286 286 286 286 286 286 286 286 286 287 287 286 286 286 287 289 291 293 293 293 293 293 293 293 292 292 293 293 293 294 294 293 293 293 293 293 294
290 290 290 289 289 289 289 289 288 288 287 287 286 286 285 285 285 285 285 285 284 285 284 284 284 284 284 284 284 284 284 284 284 284 283 283 283 282 282 282 282 283 283 284 284 285 285 285 285 285 285 286 286 286 286 286 286 286 286 287 286 286 286 286 287 290 292 292 293 293 292 292 292 292 291 292 292 293 294 293 293 293 292 292 293
289 289 289 289 289 289 288 288 288 287 286 286 285 285 285 285 284 284 284 284 284 284 284 284 284 284 284 284 284 284 284 284 283 282 282 281 281 281 281 281 281 281 281 282 282 283 284 284 284 284 285 285 285 285 286 285 285 285 286 286 286 286 286 286 285 286 288 290 292 293 292 291 293 292 291 292 292 292 292 292 293 293 292 292 292
288 288 288 288 288 288 287 287 286 286 285 285 285 284 284 284 284 284 284 284 284 284 284 284 284 283 283 283 283 283 283 282 282 281 281 280 279 279 279 280 280 281 281 281 282 282 282 282 283 283 284 284 284 284 285 285 285 285 285 285 285 286 286 286 286 285 286 287 289 291 291 292 293 292 291 291 291 291 291 291 291 291 291 291 292
287 287 287 287 286 286 285 285 284 284 284 284 284 284 284 284 284 284 284 284 284 284 284 283 283 282 282 282 282 282 282 281 280 279 279 279 278 277 278 278 279 280 280 281 281 281 281 281 282 282 282 283 283 283 283 284 284 284 284 284 284 284 285 286 286 286 286 285 286 287 289 291 293 292 291 290 290 290 291 290 290 291 290 291 291
287 286 286 285 285 284 284 284 284 283 283 283 283 283 283 283 283 283 284 284 283 283 283 283 283 282 281 281 282 282 281 280 279 278 277 276 275 275 276 277 277 278 279 279 280 280 281 280 280 281 281 282 282 282 283 283 283 283 283 283 283 284 284 285 285 286 286 286 285 286 287 288 290 291 291 291 290 290 290 290 290 290 290 290 291
286 285 285 284 284 283 283 283 283 283 283 282 283 283 283 283 283 283 283 283 283 283 282 282 282 282 281 281 281 281 280 279 278 277 275 274 274 274 274 275 276 276 277 278 278 279 279 279 279 280 280 281 281 281 282 282 282 282 282 283 283 283 283 284 284 285 285 286 286 286 286 286 287 288 290 291 290 290 290 290 290 290 290 290 291
285 284 284 283 283 283 283 283 282 282 282 282 282 282 282 282 282 282 282 282 282 282 282 281 281 281 280 279 279 279 278 276 275 275 274 274 274 273 273 274 274 275 275 276 276 276 277 277 278 278 279 279 279 280 280 281 281 281 282 282 282 282 283 283 283 284 284 285 285 286 286 286 286 286 287 289 290 290 290 289 290 289 289 290 290
284 283 283 283 283 282 282 282 282 282 282 282 282 282 282 282 282 281 281 281 281 281 281 280 279 279 278 277 277 277 276 274 273 273 272 272 272 272 272 272 273 274 274 274 274 275 275 275 275 276 277 278 278 279 280 280 281 281 282 282 282 282 283 283 283 283 283 284 285 285 285 286 286 286 286 286 288 290 290 289 289 289 289 289 289
283 283 283 282 282 281 281 281 282 282 282 282 282 282 281 281 281 280 281 281 281 280 279 279 277 276 276 275 275 275 275 273 272 272 272 271 271 270 270 271 271 272 272 273 273 273 273 273 274 274 275 275 276 278 279 280 281 281 282 282 283 283 283 283 283 283 283 283 284 284 285 285 286 286 286 285 286 288 289 289 289 289 289 288 288
283 282 282 282 281 281 281 281 281 281 281 281 281 281 281 280 280 280 280 280 280 278 278 277 276 275 274 274 273 273 273 272 271 271 271 271 270 269 269 269 269 269 270 270 271 271 271 272 273 273 274 274 275 276 277 278 279 279 280 281 281 282 282 283 283 283 283 283 283 283 284 284 285 285 286 286 285 286 288 289 289 289 288 288 288
282 282 282 281 281 280 280 280 280 280 280 280 280 280 280 280 279 279 278 278 278 277 276 276 275 274 273 273 272 272 272 272 271 271 271 270 269 268 268 268 268 268 268 269 269 269 270 271 271 272 273 273 274 275 276 277 278 278 279 280 280 281 281 282 282 282 283 283 283 283 283 284 284 285 285 286 286 286 287 288 289 289 288 288 288
282 281 281 280 280 280 280 280 279 279 279 279 279 279 279 279 278 278 278 277 276 276 275 274 274 273 272 272 272 271 271 271 271 270 270 270 269 268 267 267 268 268 268 268 268 269 269 270 270 271 272 273 274 274 275 276 276 277 277 278 278 279 280 281 282 283 283 283 283 283 284 284 284 284 285 285 285 285 286 286 288 289 289 288 288
281 281 280 280 279 279 279 279 279 279 279 279 279 279 278 278 277 277 277 276 275 274 273 273 272 272 272 272 272 271 271 271 270 270 269 269 268 268 267 267 268 268 268 268 269 269 269 269 270 270 271 272 273 273 274 275 276 276 277 277 277 278 279 279 280 281 282 283 283 284 284 284 284 283 284 284 285 285 285 285 286 288 288 289 288
280 280 280 279 279 279 279 278 278 278 278 278 278 278 278 277 277 276 275 275 274 273 272 272 272 272 272 272 272 271 271 270 270 269 268 268 268 268 267 268 268 269 269 269 269 269 269 269 269 270 270 271 271 272 273 273 274 275 276 277 277 278 278 279 279 279 280 281 282 283 284 284 284 283 283 284 284 285 285 285 285 286 287 288 289
280 279 279 279 279 279 278 278 278 278 278 278 278 278 277 277 276 275 274 274 273 272 272 272 272 272 272 272 272 272 271 270 269 268 268 268 268 267 268 268 269 269 269 269 269 269 269 269 270 270 270 271 271 272 273 273 273 274 275 275 277 277 278 278 279 279 280 280 281 282 283 284 284 284 283 283 284 285 285 285 285 285 286 288 288
279 279 278 278 278 278 278 278 278 278 277 277 277 277 277 276 276 275 274 273 272 272 272 271 271 271 271 272 272 271 270 269 268 267 267 268 268 268 268 269 269 270 270 270 270 270 270 270 270 271 272 272 272 273 273 273 273 274 274 275 276 276 277 278 278 279 279 280 280 281 282 283 284 284 284 283 284 284 285 285 285 284 285 286 287
279 278 278 278 278 277 277 277 277 277 277 277 277 277 276 276 275 274 274 273 272 272 271 271 271 270 270 270 270 270 269 268 267 267 268 268 269 269 269 270 270 270 270 270 270 270 270 271 271 272 272 273 273 273 273 273 273 273 274 274 275 275 276 276 277 277 278 279 280 281 282 283 284 285 284 284 284 284 285 285 285 284 284 285 286
278 278 278 277 277 277 277 277 277 277 277 277 276 276 275 275 275 274 273 273 272 272 271 270 270 269 269 268 268 267 267 267 267 267 268 269 269 270 270 270 271 271 271 271 271 271 271 272 272 272 273 272 272 272 273 273 273 273 274 274 274 275 275 275 276 276 277 278 279 280 282 283 284 285 285 285 285 285 285 285 285 285 285 285 285
278 277 277 277 276 276 276 277 277 277 277 276 276 275 275 275 274 274 273 272 272 271 270 269 269 268 267 266 267 267 267 267 267 267 268 269 270 270 271 271 271 272 272 272 272 272 272 273 273 273 273 273 273 273 273 273 273 273 273 273 273 274 274 275 275 276 276 277 278 279 281 282 284 285 285 285 285 285 285 285 285 285 285 285 285
277 277 276 276 276 276 276 276 277 277 277 276 276 275 275 275 274 274 273 272 271 269 268 267 267 267 266 266 267 267 267 267 268 268 269 270 271 271 272 272 272 272 272 272 273 273 273 273 273 273 273 273 273 273 273 273 273 273 273 273 273 274 274 275 275 276 276 277 278 279 280 281 284 285 285 285 285 285 285 286 286 285 285 285 285
276 276 275 275 275 275 276 276 276 276 276 276 276 275 275 275 274 273 273 272 270 268 266 266 266 267 267 267 267 267 267 268 269 270 270 271 272 272 273 273 273 273 273 273 273 273 273 273 273 273 273 273 273 273 273 273 272 273 273 273 273 274 274 275 275 275 276 277 279 280 280 281 283 285 286 285 285 285 285 285 286 285 285 285 284
276 275 275 275 275 275 276 276 276 276 276 276 275 275 275 275 274 273 272 272 271 269 268 267 268 267 267 267 267 267 267 268 269 270 271 271 272 273 273 273 274 273 273 274 274 274 273 273 273 273 273 273 272 272 272 272 272 273 273 273 273 273 274 274 275 275 276 277 279 280 281 281 282 284 285 285 285 285 285 285 286 285 285 285 284
275 275 274 274 274 275 275 275 275 276 276 275 275 275 275 275 275 274 273 272 272 271 270 270 269 269 268 267 267 267 268 268 269 270 271 271 272 273 273 274 274 274 274 274 274 273 273 273 273 273 272 272 272 273 273 273 273 273 273 273 273 274 274 274 275 275 276 277 278 280 281 282 282 283 283 284 284 285 285 285 285 285 285 284 284
275 274 274 274 274 274 275 275 275 275 275 275 274 274 274 275 276 276 275 273 272 272 271 271 271 270 269 268 267 267 268 268 269 269 270 270 271 272 273 274 274 274 274 274 273 273 273 273 272 273 273 273 274 274 274 273 273 273 273 273 273 274 274 275 275 275 275 276 277 279 280 282 283 283 284 284 284 285 285 285 285 285 284 284 284
274 274 273 273 274 274 274 274 275 275 274 274 274 274 274 273 274 275 275 275 274 273 272 272 271 271 271 271 270 269 269 269 269 269 270 270 271 272 273 273 273 273 273 272 272 272 273 272 273 274 274 274 275 274 274 273 273 273 273 273 274 274 275 275 275 275 275 276 277 278 279 280 282 283 284 284 284 284 284 284 285 284 284 284 283
273 272 272 273 273 273 273 274 274 274 274 273 273 273 273 273 273 273 273 275 275 275 275 273 272 271 271 272 272 271 271 271 271 270 270 270 270 271 272 272 273 273 273 272 272 272 272 272 273 274 274 274 274 273 273 273 273 273 274 274 274 274 275 275 276 276 276 276 277 278 278 280 281 282 282 283 283 283 283 284 284 284 284 284 283
272 272 272 272 272 272 273 273 274 274 273 273 273 273 273 273 273 272 272 272 273 274 275 275 274 272 271 271 272 272 272 272 272 270 270 270 270 271 272 273 273 273 273 273 272 272 272 272 273 273 273 273 273 274 273 273 274 274 274 275 275 275 275 276 276 276 276 276 277 278 278 279 280 281 282 282 283 283 283 283 284 284 284 284 283
272 271 271 271 272 272 273 273 273 273 273 273 272 272 272 272 273 273 272 272 272 272 272 273 274 274 273 272 272 273 273 273 272 271 271 271 272 272 272 272 272 271 271 272 272 272 272 273 273 273 273 272 273 274 274 274 275 275 276 276 277 276 276 276 276 277 277 277 277 278 278 278 279 280 280 281 282 283 283 283 283 283 284 284 283
271 271 271 271 271 272 272 273 272 272 272 272 272 272 272 273 272 272 272 272 272 272 272 271 272 274 275 274 273 273 274 273 272 271 272 273 273 273 272 271 271 271 271 271 272 273 273 273 273 274 274 273 274 275 275 275 276 277 277 277 277 277 277 277 277 278 278 278 278 278 278 278 279 279 279 280 281 282 283 283 282 282 283 283 283
271 271 270 271 271 272 272 272 272 272 271 272 272 272 272 272 272 272 272 272 271 271 271 271 271 272 273 274 274 274 273 273 272 273 273 273 273 273 273 272 272 271 271 272 272 272 273 274 274 274 274 274 274 275 275 276 277 277 277 277 277 278 278 278 278 278 278 278 278 278 279 279 279 279 279 279 280 281 282 282 282 282 282 282 282
271 270 270 270 271 271 272 272 272 272 271 271 272 272 272 272 272 272 272 272 272 271 271 271 270 270 270 272 273 272 272 272 273 273 273 273 273 272 272 272 272 272 271 272 272 272 273 273 274 274 274 274 274 275 275 276 277 277 278 278 278 278 278 278 278 278 279 279 279 279 279 279 279 280 280 280 280 281 281 281 282 282 282 282 282
270 270 270 270 270 271 271 271 271 271 271 271 271 272 272 272 272 272 272 272 272 271 271 271 270 270 270 270 269 268 269 271 272 272 272 272 272 272 271 271 271 271 271 272 272 272 273 273 273 273 273 273 274 274 274 275 276 277 278 278 278 278 278 278 278 278 279 279 279 280 280 280 280 280 281 281 280 281 281 281 281 281 281 281 282
270 270 270 270 270 270 271 271 271 271 271 271 271 271 272 271 271 271 271 271 271 271 271 271 270 270 270 269 268 267 268 270 270 270 271 271 271 271 271 270 270 271 271 271 272 272 272 272 272 272 272 273 273 273 274 274 275 276 276 277 278 278 278 278 278 278 279 279 279 280 280 280 280 280 281 280 280 280 280 281 281 280 280 280 281
269 269 269 269 270 270 270 270 270 270 270 271 271 271 271 271 271 271 271 271 271 271 271 271 270 270 269 269 269 268 269 269 269 269 270 270 270 270 270 270 270 270 270 271 271 271 271 271 271 271 272 272 272 272 273 273 274 274 275 276 277 277 278 278 278 278 279 279 279 279 280 280 280 280 280 280 280 280 280 280 281 281 280 280 280
269 269 269 269 269 269 269 270 270 270 270 270 270 270 270 271 271 270 270 270 270 270 270 270 270 270 270 269 269 269 269 269 269 269 269 269 269 269 269 270 270 270 270 270 270 270 270 270 270 271 271 271 272 272 272 272 273 273 274 275 276 276 276 277 277 278 278 278 279 279 279 279 279 280 280 280 280 280 280 280 280 280 280 279 279
269 269 269 269 269 269 269 269 269 270 270 270 270 270 270 270 270 270 270 270 270 270 270 270 270 270 270 270 270 270 270 269 269 269 269 269 269 269 269 269 269 270 270 270 270 270 270 270 270 270 271 271 271 272 272 272 272 273 273 274 274 275 275 275 276 276 277 277 277 278 278 278 278 278 278 279 279 279 279 279 279 279 278 278 278
269 269 269 269 268 268 268 269 269 269 269 269 269 269 270 270 270 270 270 270 269 269 269 269 269 269 269 269 269 269 269 269 269 269 269 269 269 269 269 269 269 269 270 270 270 270 270 270 270 270 270 271 271 272 272 272 272 273 273 273 274 274 274 274 275 275 275 275 276 276 277 277 277 277 277 277 277 278 278 278 278 277 277 277 277
269 269 269 269 268 268 268 268 269 269 269 269 269 269 269 269 269 269 269 269 269 269 269 269 269 269 269 269 269 269 269 269 269 269 269 269 269 269 269 269 269 269 269 270 270 270 270 270 271 270 270 270 270 271 271 272 272 272 273 273 273 273 274 274 274 274 274 275 275 275 275 276 276 276 276 276 276 276 276 276 276 276 276 276 276
269 269 269 268 268 268 268 268 268 268 269 269 269 269 269 269 269 269 268 268 269 269 269 269 269 269 269 269 269 269 269 269 269 269 269 269 269 269 270 270 270 270 270 270 270 270 270 271 271 271 271 271 271 270 270 271 271 272 272 272 273 273 273 273 273 273 273 274 274 274 274 275 275 275 275 275 275 275 275 275 275 275 275 275 274
268 268 268 268 268 268 267 267 267 268 268 268 268 268 268 268 268 268 268 268 268 268 268 268 269 269 269 269 268 268 268 268 269 269 269 269 269 269 269 270 270 270 270 270 270 270 270 271 271 271 271 271 271 271 271 271 271 271 272 272 272 272 272 272 272 272 272 273 273 273 273 274 274 274 274 274 274 274 274 274 274 274 273 273 273
268 268 268 268 267 267 267 267 267 267 267 268 268 268 268 268 268 268 268 268 268 268 268 268 268 268 268 268 268 268 268 268 269 269 269 269 269 269 269 269 270 270 270 270 270 270 270 271 271 270 270 271 271 271 271 271 270 270 271 271 271 271 271 272 272 272 272 272 272 272 272 273 273 273 273 273 273 273 273 273 273 272 272 272 272
268 268 267 267 267 267 267 267 267 267 267 267 267 267 268 268 268 268 268 268 268 268 268 268 268 268 268 268 268 268 268 268 268 268 269 269 269 269 269 269 269 270 270 270 270 270 270 270 271 271 270 270 270 270 270 270 270 270 270 271 271 271 272 272 271 272 272 272 272 272 272 272 272 272 272 272 272 272 272 272 272 272 272 272 271
268 267 267 267 267 267 267 267 267 267 267 266 266 267 267 267 267 268 268 268 268 268 268 268 268 268 268 268 268 268 268 268 268 268 268 268 269 269 269 269 269 269 269 269 270 270 270 270 270 271 271 271 270 270 270 270 270 270 270 271 271 271 271 272 272 271 271 271 272 272 272 272 272 272 271 271 271 271 271 271 271 271 271 271 271
Wind_Speed
7 8 8 9 10 10 11 12 12 13 14 14 14 15 15 16 16 17 18 19 20 20 21 21 22 23 23 24 25 26 27 27 27 28 28 28 28 27 28 28 29 29 29 29 28 27 28 28 28 27 26 28 29 30 32 33 35 36 36 37 39 40 40 40 46 53 52 49 48 47 44 42 42 43 43 42 41 40 41 41 39 38 39 41 41
10 11 12 13 14 15 15 16 18 19 19 19 19 19 19 19 19 20 19 20 21 22 22 23 23 24 25 25 26 27 28 28 29 30 31 31 31 31 30 31 31 31 32 32 32 31 32 32 31 29 27 28 29 28 29 30 31 34 36 36 39 40 39 41 45 50 52 50 48 49 47 45 46 45 43 43 43 42 43 44 43 41 41 40 41
13 14 15 16 17 18 19 21 22 23 24 24 24 24 24 25 25 26 25 24 24 24 24 25 25 26 27 27 28 28 29 30 30 31 32 33 34 34 34 34 34 34 34 34 33 33 35 36 35 33 31 31 31 30 29 28 28 31 33 35 37 39 39 39 42 47 50 50 48 49 49 48 49 49 45 44 42 42 44 45 44 44 43 42 43
15 16 17 18 19 20 22 23 25 26 27 27 27 27 27 28 28 29 30 30 30 30 30 30 30 31 31 31 31 32 32 33 34 34 35 35 36 36 36 36 37 37 37 37 36 35 35 36 37 36 35 35 35 33 31 30 29 29 30 31 34 37 38 38 41 44 46 48 49 48 47 48 50 50 47 46 45 43 43 44 45 46 45 45 45
12 14 15 17 18 20 22 23 25 27 28 29 30 30 30 29 29 30 31 32 33 34 34 35 36 37 37 38 37 37 37 37 38 38 38 39 40 40 40 40 39 39 39 40 40 39 39 38 38 37 36 37 38 37 35 33 32 31 32 31 31 32 34 37 40 41 43 47 49 47 45 46 48 49 48 47 46 46 45 45 45 46 46 47 47
12 13 15 16 18 20 22 24 26 28 30 32 32 32 32 32 31 32 33 33 34 35 36 37 38 40 41 42 43 44 44 44 44 44 44 44 44 45 45 44 44 44 43 43 42 42 42 42 41 39 38 38 38 38 38 37 35 34 34 33 32 31 32 34 36 39 42 46 48 46 45 45 45 47 48 47 47 47 48 48 48 47 47 48 48
16 17 18 20 21 23 24 26 29 31 33 34 33 33 32 32 33 34 35 36 37 39 39 40 41 41 43 44 45 46 47 48 49 50 50 49 48 48 49 49 49 48 48 47 46 46 45 45 45 44 42 41 40 38 38 38 38 38 37 36 34 33 33 33 34 36 39 44 46 46 45 44 43 44 45 44 46 48 48 48 50 51 51 50 50
19 19 20 22 23 25 27 29 32 34 34 34 34 34 33 34 35 36 38 39 40 41 43 44 45 45 46 46 47 47 48 49 50 50 51 50 49 49 49 50 50 51 51 51 51 50 50 49 48 47 46 45 44 42 40 38 38 39 39 38 36 36 35 35 35 36 38 41 44 45 45 44 44 43 42 41 44 48 49 48 50 53 53 53 53
19 20 21 23 25 28 31 33 35 36 35 35 35 35 36 38 39 40 41 42 43 44 45 46 47 48 48 48 49 49 49 50 50 49 48 48 48 48 48 47 47 48 50 51 52 53 53 53 52 51 50 49 48 47 45 42 41 41 41 39 38 38 38 37 37 37 38 41 43 44 44 44 45 44 43 43 45 46 46 46 50 52 52 52 54
22 24 25 27 29 31 33 34 35 34 34 34 35 37 39 40 41 43 43 44 45 46 46 47 47 48 49 49 49 49 49 50 49 48 46 45 45 45 45 46 46 46 47 49 51 52 52 53 53 54 53 51 50 50 49 47 45 44 43 41 40 40 40 40 39 39 39 41 43 43 43 45 46 45 44 45 44 43 42 44 47 49 48 50 54
24 26 28 29 30 31 32 31 31 31 32 34 36 38 39 40 41 42 43 44 44 44 45 46 46 46 47 48 49 49 49 49 49 48 47 45 43 41 42 44 46 47 48 49 51 51 51 51 51 51 52 52 53 52 51 51 50 49 47 44 42 41 41 42 42 41 40 42 43 44 44 46 47 45 43 44 43 42 42 43 44 45 46 49 53
24 26 27 28 29 29 29 30 30 32 34 36 37 38 39 40 41 42 43 43 44 44 44 45 45 46 46 48 49 50 50 51 50 50 49 48 45 43 43 45 47 49 50 51 52 53 52 52 50 49 50 50 51 52 52 51 51 50 50 48 46 44 42 43 44 43 43 43 44 45 46 47 48 45 42 42 43 42 42 42 43 44 46 48 51
25 26 27 27 28 28 29 31 33 35 36 37 38 39 39 40 41 42 43 44 44 45 45 46 46 47 48 49 51 51 52 52 51 51 49 47 44 41 41 45 48 50 51 52 53 54 54 54 53 52 51 50 48 48 49 51 51 51 50 50 49 48 45 44 43 44 45 45 46 47 47 47 48 47 44 42 42 41 42 42 43 43 45 48 50
26 27 27 27 28 30 32 34 35 36 37 38 39 39 40 41 41 42 43 44 45 46 47 48 49 49 50 51 51 52 52 51 49 48 46 45 43 41 41 44 48 50 51 52 52 53 53 52 52 53 53 51 47 46 45 46 48 49 49 49 50 51 50 48 46 45 45 46 48 49 48 47 47 47 45 43 43 42 43 43 43 43 45 46 47
27 27 27 28 30 32 34 35 36 37 37 38 39 39 40 41 41 42 43 45 46 47 48 49 50 50 50 50 51 52 50 46 45 44 43 42 42 41 42 45 47 49 51 51 50 51 51 51 52 52 53 52 50 49 48 47 47 48 49 50 50 51 51 51 50 48 47 47 48 50 49 48 47 46 45 45 46 46 45 44 43 42 42 43 44
27 27 28 30 32 33 34 35 36 37 37 38 39 39 40 41 42 43 45 46 47 48 49 49 50 50 50 48 48 50 47 43 41 40 39 39 38 38 40 43 45 47 49 49 49 50 50 50 50 50 50 51 49 45 41 41 41 43 46 47 49 50 52 52 52 51 50 48 48 49 49 49 47 45 44 45 46 46 45 44 42 41 40 41 43
27 28 30 31 32 33 34 35 36 36 37 37 38 39 40 41 42 43 45 47 48 48 49 49 48 48 48 46 45 47 47 42 39 38 36 35 33 33 36 39 41 44 46 46 45 45 46 45 45 46 48 49 48 43 39 37 38 40 42 43 44 46 49 50 50 51 51 51 50 49 49 49 48 46 45 44 43 43 43 44 43 42 42 43 45
29 30 31 32 32 33 33 34 34 35 36 36 38 39 40 41 42 43 45 47 48 48 48 48 47 45 45 44 43 44 45 41 37 36 34 31 29 29 32 35 37 39 40 41 40 39 39 38 36 38 41 43 44 43 41 41 42 43 45 46 47 49 50 51 52 51 50 49 50 50 50 49 48 46 46 45 43 41 43 45 45 43 43 45 47
30 32 32 32 32 32 32 32 33 34 35 36 37 39 40 42 43 44 45 46 47 47 46 46 46 43 42 41 40 40 41 39 35 33 32 29 26 27 30 33 35 35 36 37 37 35 34 34 32 32 35 37 38 37 37 37 39 42 44 45 47 49 49 48 50 51 50 50 50 50 50 50 49 47 46 45 45 44 44 46 46 45 45 46 47
31 32 33 32 31 30 30 31 32 33 34 36 38 39 41 42 43 44 44 44 45 45 43 42 43 42 39 38 37 36 36 36 33 30 29 26 23 25 28 31 34 35 36 37 38 37 36 36 35 33 33 34 35 35 35 35 37 40 44 46 49 51 49 45 43 43 45 48 49 49 49 49 49 48 47 46 46 47 46 45 46 46 46 47 47
32 33 32 31 30 30 30 30 31 33 34 36 38 39 40 41 42 43 43 43 43 42 41 40 40 40 37 36 36 34 32 32 30 27 26 24 23 24 28 31 33 36 38 38 39 39 38 37 35 33 31 32 33 33 33 33 34 36 40 44 47 49 50 50 49 46 45 45 47 48 49 50 50 50 49 48 47 47 47 45 44 46 47 48 48
33 32 31 30 30 30 30 30 32 33 34 36 38 39 39 40 41 41 41 41 41 40 39 38 38 38 36 34 34 32 29 27 27 26 25 25 25 25 28 31 32 34 38 39 39 40 39 38 38 36 33 33 35 35 35 36 36 37 39 40 41 41 42 46 49 51 51 50 48 49 50 51 51 51 51 50 49 48 47 46 44 43 45 47 49
32 31 30 30 29 29 30 31 32 33 34 36 37 38 39 39 39 39 38 38 38 38 37 35 35 36 35 34 32 30 28 26 27 28 29 29 28 27 29 31 31 32 35 38 39 40 40 40 39 37 34 34 34 35 35 36 37 38 40 40 40 39 40 43 45 47 50 52 51 51 51 52 52 53 52 52 51 48 47 46 44 43 43 44 46
31 30 29 29 29 29 30 31 32 33 34 35 36 37 37 38 38 37 35 35 36 36 35 34 33 34 35 34 32 30 30 31 31 32 32 31 30 28 27 28 28 29 32 36 39 40 40 39 38 37 36 36 36 36 36 35 36 37 38 38 38 38 38 41 43 45 47 48 49 51 53 54 54 54 53 52 51 49 47 45 44 43 43 42 43
31 29 29 28 28 29 30 31 32 33 33 34 35 35 36 37 37 36 33 33 34 34 33 32 32 33 34 35 35 35 35 36 37 36 34 32 30 28 27 28 28 29 32 35 37 38 38 38 37 36 35 35 34 34 33 32 33 34 35 35 36 37 38 40 41 42 45 48 48 49 52 53 54 54 53 51 49 48 47 46 45 44 42 41 40
30 28 28 28 28 29 30 31 31 32 32 32 33 33 33 34 35 34 32 32 32 32 32 31 32 33 34 36 38 39 40 40 40 38 35 33 32 32 32 32 31 31 33 34 35 35 35 35 35 35 35 35 34 34 34 33 33 34 34 34 35 37 39 41 41 41 44 48 49 50 50 50 51 51 51 49 49 48 47 46 45 44 42 40 38
29 27 27 27 28 29 30 31 32 32 32 32 32 31 30 31 33 32 31 31 32 31 31 31 32 34 37 38 39 40 40 40 39 37 35 35 36 38 38 38 37 37 37 38 38 37 36 36 36 36 36 35 35 34 35 35 35 35 35 35 35 35 36 38 39 40 43 46 49 51 50 48 47 48 47 48 48 48 47 46 45 44 42 39 37
28 26 26 27 27 28 29 31 32 32 32 32 31 31 29 29 31 31 29 30 32 32 31 32 33 34 36 38 39 40 40 38 38 36 35 36 37 38 39 39 40 40 40 40 40 39 39 38 38 37 37 37 37 36 37 37 38 38 37 36 35 34 35 35 37 38 40 42 45 50 50 47 45 44 44 45 46 46 44 44 45 43 41 38 36
26 25 25 26 27 28 29 30 30 32 32 32 31 30 28 28 31 32 30 28 29 30 30 32 33 33 34 35 36 37 38 38 36 34 32 32 33 33 34 35 35 36 37 37 37 37 37 37 38 38 38 38 38 38 39 40 40 39 38 37 36 35 35 35 37 38 38 38 39 44 49 47 42 40 40 40 42 43 42 43 44 43 40 38 37
25 24 25 25 26 27 28 29 29 30 31 32 32 30 27 24 25 29 31 28 26 26 26 27 27 28 30 31 31 32 34 35 34 33 31 30 30 29 29 29 29 31 32 32 33 34 34 34 36 36 37 37 39 40 42 42 41 41 40 38 37 36 35 36 36 37 37 36 34 36 42 45 42 39 39 39 40 41 42 42 43 42 40 39 39
25 24 24 25 25 27 28 28 29 29 29 30 31 32 30 26 21 22 27 29 27 24 22 22 23 23 25 27 28 29 29 30 32 32 32 32 30 28 27 28 28 29 29 30 32 33 33 33 35 36 36 37 38 39 39 40 40 41 40 39 38 37 37 37 36 35 36 36 33 32 35 41 44 42 41 41 40 41 41 41 41 41 40 39 39
24 24 24 25 25 26 27 27 28 28 28 28 29 30 32 31 27 22 21 25 28 26 22 21 22 23 24 25 27 28 28 28 30 31 31 32 31 28 27 28 29 29 29 31 33 34 33 33 34 35 35 36 36 37 38 39 40 40 40 40 39 38 37 36 35 33 34 35 34 31 30 34 39 40 39 38 39 40 40 41 40 40 39 39 39
23 24 24 24 24 25 26 26 27 27 27 27 28 28 30 32 33 30 25 22 23 23 22 23 24 24 24 24 24 26 26 26 28 28 29 30 31 29 27 28 29 30 31 31 32 32 32 32 32 32 33 34 36 39 40 41 42 42 41 41 40 39 36 33 32 32 32 33 34 33 30 27 29 32 33 33 35 38 39 40 40 39 39 39 38
22 23 23 23 24 24 25 26 26 25 25 26 26 27 28 29 31 34 33 29 25 22 21 23 25 26 26 24 23 24 25 25 25 25 26 28 29 27 26 27 28 27 26 25 26 27 28 29 30 31 32 34 37 39 40 41 41 42 41 41 40 38 35 31 30 30 30 30 33 34 31 27 25 28 31 32 34 36 37 38 39 40 39 39 39
20 21 21 22 23 24 24 24 24 24 24 24 25 26 28 29 29 31 33 34 32 29 25 23 23 25 27 26 24 24 24 24 23 24 26 27 27 26 26 26 26 24 21 21 22 24 26 27 29 30 31 33 35 36 36 37 39 40 40 38 36 35 33 31 29 28 28 29 32 33 32 30 26 25 26 30 34 36 36 36 38 40 40 39 38
20 20 20 21 22 22 23 23 23 23 23 24 25 25 26 27 28 29 30 31 31 31 30 28 25 25 25 26 25 25 24 24 25 26 26 25 25 25 25 24 23 23 22 21 22 23 24 26 27 29 30 31 33 33 33 34 36 36 34 33 32 30 29 28 27 27 27 28 31 32 33 33 31 27 25 26 30 34 34 34 35 37 38 38 37
19 19 19 20 21 21 22 22 22 22 22 23 24 25 25 26 27 27 28 29 29 29 29 29 28 26 25 26 26 26 25 25 26 26 24 22 21 22 21 21 21 22 22 22 22 23 24 25 26 28 29 31 32 32 33 34 34 32 30 29 28 27 27 27 26 27 27 28 29 30 31 32 32 32 30 28 29 31 33 34 35 35 36 36 35
18 18 19 19 20 20 20 21 20 20 21 22 23 24 25 25 26 26 26 26 27 27 26 26 27 26 27 27 28 28 28 29 28 26 24 22 20 20 20 20 20 21 22 23 23 24 24 25 25 27 28 30 31 32 32 33 32 31 29 27 27 27 29 29 28 28 28 28 29 29 29 30 30 31 32 31 30 29 31 33 36 37 36 34 34
17 17 17 18 19 19 19 19 20 20 20 21 22 23 24 24 24 24 24 24 24 23 23 24 24 24 25 25 27 29 30 30 29 28 26 25 22 21 20 20 21 21 22 23 23 24 24 24 24 25 26 27 28 29 29 29 29 29 28 26 25 25 26 28 30 30 30 30 30 28 26 26 27 28 30 30 29 29 29 30 33 36 35 32 32
16 16 17 17 17 17 17 18 18 19 19 20 21 22 22 23 23 22 22 22 21 21 21 21 22 23 23 23 25 27 28 28 27 27 27 26 25 23 22 21 22 22 22 22 23 23 24 24 24 24 25 25 27 27 27 26 25 25 25 24 24 24 23 23 24 26 27 29 30 28 26 24 24 27 29 29 29 31 32 30 29 30 31 31 33
15 16 16 16 16 16 16 17 17 17 18 19 20 20 21 21 20 20 19 19 19 19 19 20 20 21 21 22 22 22 24 25 26 27 27 27 27 26 25 24 23 22 22 22 22 23 23 23 24 24 25 25 25 26 25 24 24 23 22 21 21 21 21 21 21 21 21 22 24 25 26 25 25 28 30 29 27 28 30 29 28 29 32 34 36
15 15 15 15 15 16 16 16 16 16 16 17 18 19 19 18 18 17 17 17 18 18 18 18 19 19 20 20 21 21 23 24 26 27 27 28 28 28 28 27 25 24 23 23 22 22 23 23 22 23 24 24 24 25 25 24 23 22 21 20 19 18 17 17 17 17 17 17 19 21 24 25 27 29 30 29 27 27 29 30 31 32 34 35 35
15 15 15 14 14 15 16 16 16 16 16 16 16 16 17 16 16 16 16 16 16 17 17 18 18 18 19 19 20 21 22 23 25 26 27 27 28 28 29 29 28 27 25 24 23 22 22 22 22 22 22 22 22 22 23 23 22 21 19 18 17 16 15 14 13 12 12 12 12 13 16 19 22 25 27 27 27 28 29 30 32 32 32 32 31
14 14 14 13 13 14 15 16 16 15 15 15 15 15 15 15 15 15 15 14 15 15 16 17 18 18 19 19 20 21 22 23 24 25 25 26 26 27 27 28 28 28 27 26 25 23 22 22 22 22 21 20 19 19 19 20 21 20 19 18 16 15 14 13 13 12 11 10 9 9 9 12 15 18 20 21 22 23 24 25 27 27 27 27 27
14 14 13 13 13 13 14 14 15 15 15 14 14 14 14 14 14 14 14 14 14 14 14 15 16 18 18 19 20 21 22 23 23 24 24 25 25 25 25 26 26 27 27 27 26 25 24 23 23 23 23 22 21 19 18 18 17 18 18 18 17 16 14 14 13 13 12 11 10 9 8 8 9 11 13 14 15 16 18 19 20 21 22 22 23
14 14 13 12 12 13 14 14 14 14 14 14 14 13 13 13 13 13 13 13 13 13 13 14 15 16 18 19 20 21 21 22 23 23 24 24 24 24 25 25 25 25 25 25 25 25 25 25 24 24 24 24 24 23 21 19 17 16 16 15 15 15 14 13 12 12 11 11 10 9 8 7 6 6 7 8 9 11 12 13 14 15 16 18 19
13 13 13 13 13 13 14 14 14 14 14 14 14 14 13 13 12 12 12 12 12 12 13 14 15 16 17 18 19 20 20 21 22 23 24 24 24 24 24 24 24 24 24 24 24 25 25 26 26 26 25 26 27 27 26 25 22 19 17 16 15 15 13 12 12 11 11 11 10 9 8 7 6 5 4 5 6 7 8 9 10 11 13 14 15
12 12 12 12 13 13 13 13 14 14 13 13 13 13 13 13 12 12 11 12 12 12 13 13 14 15 16 17 18 19 19 20 21 22 22 23 24 24 24 24 24 25 25 25 25 25 24 25 26 27 27 27 27 28 29 29 28 26 24 22 20 18 16 15 14 14 13 12 11 10 9 8 6 4 2 2 3 4 5 7 8 10 11 12 13
12 11 11 12 12 13 13 13 13 14 13 13 12 12 12 12 12 12 11 12 12 12 13 14 14 15 15 16 16 17 18 18 19 20 21 22 23 23 24 24 24 24 25 25 25 25 25 25 25 26 27 27 28 28 29 29 29 29 28 26 24 22 21 19 18 18 16 15 14 12 11 9 7 5 3 2 2 3 4 6 8 9 10 11 13
11 11 11 11 12 12 13 13 13 14 14 13 13 13 12 12 12 12 12 12 12 12 13 13 14 15 15 16 16 16 17 18 18 19 20 21 21 22 23 23 23 24 24 24 25 25 25 25 25 25 25 26 27 27 28 28 28 29 28 28 26 25 24 23 22 21 20 18 17 16 13 11 9 8 7 6 5 4 5 6 8 9 10 11 13
11 11 11 12 12 13 13 13 13 13 13 13 13 13 12 12 12 12 12 13 13 12 13 13 14 14 15 15 16 16 16 17 18 18 19 20 20 21 22 22 23 23 23 24 24 24 24 24 24 24 24 24 25 26 26 27 26 26 26 26 27 26 26 25 25 23 22 21 19 18 16 15 13 12 11 10 8 8 8 8 8 9 10 11 12
Wind_Direction
4 357 353 352 348 344 340 338 336 334 332 330 328 327 326 325 324 322 322 323 322 321 321 320 319 317 315 315 314 314 314 314 314 313 312 312 311 310 310 308 306 306 305 305 305 306 305 303 300 300 298 291 285 279 273 269 266 264 261 260 259 258 259 262 265 268 268 267 268 268 268 268 266 264 264 263 261 260 260 260 258 256 255 254 253
354 350 347 345 342 340 338 336 334 333 332 331 330 329 328 326 325 322 321 320 320 321 320 318 317 315 313 312 311 311 311 311 311 310 309 308 307 307 307 307 306 304 303 302 302 302 302 302 301 301 301 297 293 290 285 279 273 269 265 262 261 259 258 260 263 267 268 267 266 266 266 266 265 264 263 263 262 261 261 260 260 258 255 254 253
346 341 338 336 335 335 334 333 332 332 332 331 330 330 329 329 329 327 326 324 322 321 320 318 317 314 313 312 310 310 309 308 308 307 306 306 305 305 304 304 303 303 302 301 300 300 298 298 299 300 301 299 296 295 292 289 284 278 272 267 264 262 260 259 262 265 268 268 266 265 264 264 264 264 263 263 262 261 260 261 260 259 257 255 253
338 333 330 328 327 327 328 329 329 329 328 326 325 326 326 326 327 327 327 326 324 323 321 320 318 316 314 312 311 309 308 307 306 305 304 304 304 303 302 301 300 300 299 299 298 298 296 295 295 296 298 297 296 296 295 293 290 286 281 275 270 266 264 262 261 263 267 269 267 265 264 263 263 263 263 262 261 259 259 259 259 258 257 255 253
324 321 317 315 315 316 319 321 322 323 322 321 321 322 323 323 323 323 323 321 321 320 320 320 319 318 317 315 313 311 309 308 306 304 304 304 303 302 301 299 298 296 295 295 295 295 294 292 292 292 292 292 292 293 294 294 292 289 286 282 278 273 269 265 263 263 266 268 268 267 266 264 262 261 261 261 260 258 257 256 255 255 255 254 252
303 304 304 304 305 307 310 312 315 316 317 317 317 318 320 320 320 319 318 317 316 316 316 315 315 315 314 314 313 311 310 308 306 304 303 302 300 299 298 296 295 294 292 291 290 290 289 289 289 288 287 286 287 288 290 291 291 290 287 285 283 280 275 269 266 264 264 266 267 268 267 265 263 261 259 258 258 258 257 256 255 253 253 252 251
296 296 297 299 301 303 306 308 310 312 312 313 313 314 315 315 315 314 314 314 314 314 313 312 311 310 309 308 307 306 306 305 304 304 303 301 300 297 295 294 292 291 290 288 287 286 285 285 284 284 284 284 283 284 284 286 286 286 286 286 285 282 279 275 271 267 265 265 266 268 268 267 266 263 261 259 258 257 256 256 255 253 252 251 250
292 290 291 293 295 298 301 302 305 306 308 309 310 310 311 310 311 311 311 312 312 311 311 310 309 308 306 305 304 302 301 300 299 299 300 300 300 299 297 295 293 291 288 287 285 284 283 282 281 280 280 281 281 281 280 280 281 281 282 283 283 282 280 278 275 272 269 268 267 267 268 268 267 265 263 259 255 253 252 252 254 254 254 253 252
291 289 289 291 292 294 297 299 301 303 305 307 308 309 309 310 311 311 311 310 310 309 308 307 307 306 305 304 302 301 300 299 298 298 298 297 297 297 297 296 295 293 290 287 285 283 281 281 280 279 278 278 278 277 277 277 277 277 277 278 279 279 279 279 277 274 272 271 270 270 268 267 266 265 263 259 257 256 254 252 253 254 255 256 256
290 289 289 290 291 292 294 296 298 300 302 304 305 307 308 308 309 309 309 308 308 308 307 306 305 305 304 303 301 300 299 299 298 298 297 296 294 293 293 292 291 290 289 288 286 284 282 280 279 278 278 277 276 274 274 274 274 274 274 274 274 275 276 277 276 274 273 271 271 271 268 266 266 264 262 263 262 261 259 256 254 255 255 256 257
289 288 288 289 289 290 292 293 295 297 299 301 302 304 304 305 305 306 306 306 306 305 305 304 304 303 302 301 301 300 299 298 297 295 294 292 290 289 289 287 286 285 285 284 284 284 283 281 280 278 277 277 276 275 274 272 272 272 272 271 270 270 271 272 272 273 273 272 271 270 267 267 268 266 263 264 264 262 261 259 257 256 254 254 255
292 291 291 291 292 293 295 297 298 300 301 302 303 304 304 305 305 305 305 305 305 305 304 304 303 302 301 300 299 298 297 296 295 294 293 291 290 288 286 284 282 281 280 280 280 281 281 281 280 279 277 276 275 276 276 274 272 271 271 270 269 268 266 266 268 269 271 271 272 271 268 268 270 267 263 263 263 262 262 260 258 256 254 254 255
294 294 294 295 296 298 301 302 304 305 305 306 306 306 307 307 307 307 308 307 307 306 306 305 304 303 302 300 299 298 297 296 295 295 294 293 291 289 285 282 280 278 277 276 277 277 278 279 279 279 278 277 276 276 276 275 275 274 273 272 271 269 266 263 263 264 266 268 270 270 270 269 270 269 267 264 263 262 260 258 257 256 255 254 256
297 297 297 299 300 303 305 306 307 307 308 308 309 309 310 310 310 310 309 309 308 307 306 306 305 304 302 301 300 298 298 297 297 296 295 294 292 289 285 281 279 277 276 275 274 274 274 275 276 276 276 276 275 275 275 275 276 276 276 275 273 271 268 266 263 261 261 262 265 267 269 269 271 273 271 266 262 261 260 259 259 258 257 259 262
299 299 300 302 305 307 308 309 309 309 310 310 310 311 311 311 311 311 310 309 308 308 308 307 306 305 304 303 302 300 300 300 299 298 297 296 294 292 289 285 281 279 277 275 274 273 272 272 273 274 275 275 274 274 275 275 276 276 276 276 274 272 270 268 265 262 259 258 260 263 266 268 271 274 273 268 264 262 262 262 263 263 264 264 265
300 300 302 305 308 310 310 310 310 310 310 310 311 311 311 311 311 311 310 310 309 309 309 308 308 307 306 306 305 303 302 303 303 302 301 300 298 295 292 289 286 284 282 279 277 275 273 273 273 274 275 276 276 277 277 278 277 275 275 275 275 274 272 269 267 265 262 260 259 260 262 264 266 269 272 270 267 265 264 262 261 262 261 259 258
301 303 307 310 311 311 311 310 311 310 310 311 311 311 311 311 312 312 311 311 311 311 311 310 309 309 308 308 307 305 304 306 307 306 304 302 300 297 294 291 289 288 287 286 284 282 279 277 276 276 274 273 273 272 270 270 272 272 273 273 274 274 273 272 269 267 266 265 263 261 259 260 261 263 266 267 266 264 261 258 256 255 253 251 251
304 307 310 312 312 312 311 311 311 310 310 311 311 311 311 312 313 313 313 313 313 313 312 311 310 310 309 309 309 307 306 308 309 307 305 304 302 298 295 294 292 292 292 292 291 290 288 286 283 282 280 277 276 274 271 269 270 271 271 272 273 271 270 270 270 270 270 269 267 265 262 259 258 258 259 261 262 260 254 252 253 251 248 247 248
307 310 312 313 312 312 312 310 309 309 310 311 312 312 313 314 315 315 315 314 314 313 312 311 311 310 310 309 309 308 307 307 308 308 306 305 303 299 297 296 295 295 296 296 296 295 293 292 290 288 285 284 282 281 279 275 272 270 270 272 272 271 270 270 271 272 272 271 270 269 266 263 260 258 256 256 258 258 252 249 250 248 246 246 247
309 311 312 312 312 312 310 309 309 311 312 313 313 314 316 317 317 317 316 315 314 313 313 312 310 309 310 310 309 309 309 308 309 309 307 306 304 301 298 297 296 296 296 297 297 298 299 298 298 295 291 288 286 284 283 279 275 271 268 268 267 266 267 269 271 272 272 271 270 269 269 267 264 261 258 255 255 256 254 250 247 246 244 244 245
310 311 312 312 312 311 310 310 312 313 314 315 315 316 318 318 317 317 317 316 315 314 313 312 310 309 311 312 312 312 311 310 310 312 311 311 310 305 299 297 297 298 299 299 299 300 300 300 299 297 293 291 290 288 286 283 281 277 272 269 269 268 267 267 267 267 269 270 270 268 267 267 265 263 261 258 255 254 255 253 248 245 244 243 244
310 311 312 312 312 310 310 312 314 315 316 316 316 317 319 318 317 318 318 317 315 314 313 313 312 312 314 315 315 314 312 312 315 319 321 321 318 310 301 298 298 298 299 299 298 298 299 299 300 299 295 291 289 287 285 283 281 279 275 274 275 275 272 270 267 264 263 263 265 266 264 263 263 262 261 259 255 253 254 254 251 247 245 245 245
310 312 312 312 311 311 311 313 315 316 317 318 317 318 319 319 318 319 318 317 315 314 314 315 315 316 317 318 317 316 317 320 324 327 329 328 325 316 304 299 298 297 297 297 298 299 300 301 302 304 302 296 291 289 288 287 283 279 277 276 276 276 276 275 273 269 265 261 260 261 261 259 259 259 258 257 255 253 253 254 254 250 247 247 247
310 312 312 311 310 311 312 315 316 317 318 318 318 318 320 320 319 319 319 318 316 315 317 320 320 321 321 321 321 324 327 330 331 331 331 330 328 322 313 308 305 301 299 299 301 302 303 303 303 304 302 297 293 291 291 289 286 283 280 278 278 278 277 276 275 274 272 266 259 256 256 256 255 256 256 256 256 255 254 255 255 254 251 250 250
310 312 311 311 311 312 314 316 317 318 319 319 319 320 322 321 319 319 320 320 317 318 322 325 325 325 326 327 328 331 332 331 330 330 331 331 331 329 327 323 319 311 304 303 303 302 301 301 300 299 298 298 297 297 295 292 290 288 284 280 279 277 277 278 277 276 275 271 265 259 256 255 254 254 256 257 257 257 257 256 255 254 253 253 253
310 311 310 310 312 313 314 316 317 318 319 320 321 323 324 321 319 320 323 323 322 324 328 329 329 329 330 330 330 330 330 328 326 327 329 330 332 332 330 326 323 318 313 310 309 306 304 304 304 304 305 306 305 302 298 296 294 292 288 285 282 278 277 279 279 279 277 273 268 263 260 257 255 254 253 254 254 255 255 255 255 253 252 252 251
309 310 310 311 313 314 316 317 317 319 320 322 322 324 325 322 320 322 326 327 327 330 332 332 331 330 328 327 326 324 323 321 321 323 328 330 329 327 325 322 320 319 316 314 314 313 312 312 311 310 310 309 307 302 299 299 298 296 295 293 290 286 282 280 279 278 277 274 269 263 260 260 257 253 250 249 250 252 253 253 254 254 253 251 250
308 309 310 311 313 315 316 317 318 319 321 323 323 325 327 325 322 324 330 334 333 333 333 331 329 326 322 320 320 318 318 319 321 325 328 326 322 321 319 318 318 316 315 316 316 314 313 312 311 310 309 308 306 303 300 300 298 297 296 296 294 291 287 283 281 279 278 277 271 261 257 259 257 251 246 245 245 248 251 252 252 253 252 249 246
306 308 309 312 314 315 316 317 319 321 322 323 323 324 328 330 327 327 333 340 340 334 325 319 318 318 315 315 315 314 314 317 320 322 322 319 316 316 315 314 314 312 312 314 313 310 309 310 309 308 307 306 304 302 299 298 297 295 294 294 293 291 288 285 284 282 282 282 276 263 257 258 255 247 244 244 244 245 249 250 250 250 248 245 245
305 308 310 312 314 315 315 318 321 322 323 323 323 323 328 333 331 329 332 340 345 338 325 317 315 313 310 309 310 309 309 311 312 313 315 314 312 312 312 311 310 309 309 310 309 306 306 307 305 304 304 303 302 301 300 299 298 296 295 294 292 291 289 285 284 285 285 286 284 272 261 258 255 250 247 246 245 244 245 247 247 246 244 242 243
305 308 311 313 314 315 316 319 322 322 323 324 324 324 327 330 332 331 334 339 344 343 336 330 329 324 315 311 311 311 310 311 312 311 312 312 309 309 311 311 310 309 307 306 305 304 304 304 302 301 301 301 301 302 303 302 301 298 297 295 292 290 290 287 286 288 287 285 287 285 270 258 253 251 249 246 243 241 241 242 242 242 241 241 243
305 309 311 312 313 315 317 319 322 322 323 325 325 326 328 329 331 335 341 343 343 342 341 339 337 335 330 322 318 317 317 317 315 313 313 313 311 311 312 310 308 305 301 300 301 300 299 299 299 300 302 305 306 308 309 307 305 303 300 296 293 292 291 288 286 288 287 283 285 288 282 265 252 246 243 241 241 240 239 238 238 238 239 241 243
305 308 310 311 313 316 318 319 322 323 324 325 327 328 330 331 331 335 342 348 346 342 342 342 340 339 336 331 326 324 321 318 315 315 316 317 316 315 313 308 303 300 299 298 299 298 296 298 302 306 310 313 314 314 313 311 308 306 302 298 295 294 293 291 287 285 285 283 281 282 285 281 265 251 245 243 242 241 240 239 238 238 238 238 241
305 307 309 312 314 317 318 320 322 323 324 326 328 329 331 332 333 335 339 343 345 345 346 346 344 342 339 336 333 329 325 321 320 322 324 323 320 317 311 304 299 298 298 299 302 304 305 307 311 314 317 318 317 316 315 313 311 308 303 299 296 295 294 293 289 285 284 284 282 277 278 283 279 265 257 253 248 245 244 242 239 238 237 237 238
304 306 309 312 315 317 318 320 322 323 324 327 330 331 331 332 333 335 336 337 339 342 347 350 349 346 342 340 339 334 330 328 331 333 331 325 321 317 311 307 307 310 311 313 317 319 319 318 319 319 320 321 321 320 319 319 318 314 308 302 297 295 294 292 289 286 284 284 283 278 273 274 274 268 262 256 249 245 245 242 238 237 237 238 239
303 306 310 314 315 316 318 321 324 324 326 329 332 332 331 332 334 336 336 336 336 339 343 347 349 347 345 344 343 339 337 340 342 340 335 329 325 322 319 316 317 321 324 326 327 325 323 322 322 322 324 326 328 328 329 330 330 326 319 310 302 297 295 292 288 287 284 283 283 280 274 271 269 267 266 263 254 249 247 245 240 238 238 238 239
304 308 312 314 314 316 319 323 325 327 329 332 332 332 333 334 336 337 338 338 338 341 343 346 347 348 349 349 346 343 344 347 345 340 337 335 332 328 326 326 327 328 331 334 333 329 326 326 325 325 328 332 334 336 337 336 336 336 332 321 309 301 297 294 291 288 285 283 282 280 276 271 267 265 268 269 263 256 251 247 243 244 244 242 242
305 310 313 313 315 317 319 323 326 329 331 332 333 334 336 338 339 341 341 340 341 344 347 350 352 352 351 350 348 348 350 350 346 343 343 343 341 338 336 333 333 336 337 338 337 332 327 327 327 327 329 332 334 336 336 333 333 337 337 330 320 310 303 298 294 290 285 282 280 278 275 270 266 264 265 265 261 258 253 245 239 237 238 239 242
306 310 312 313 315 316 318 323 327 330 332 333 335 337 339 341 342 344 343 343 345 349 354 358 0 360 357 354 354 355 355 354 351 349 349 350 349 347 343 337 336 339 340 339 337 333 330 330 330 329 330 331 331 331 331 330 330 331 333 333 331 324 314 304 296 292 288 285 282 280 275 268 262 261 261 260 257 256 253 247 240 235 233 236 243
305 309 311 312 314 316 320 325 328 330 332 335 336 338 342 344 345 346 346 346 349 356 1 5 7 6 6 7 5 359 356 359 1 0 358 358 356 354 351 347 344 343 343 341 339 336 334 335 335 333 332 332 330 329 329 330 330 329 328 329 329 329 327 319 306 297 291 287 285 283 279 272 263 258 257 260 259 254 248 245 244 242 240 245 249
306 309 310 312 314 317 322 326 328 330 333 334 336 340 344 346 346 348 349 350 353 358 3 9 12 11 13 16 16 8 4 9 14 14 12 11 9 7 5 1 356 352 349 347 344 342 341 340 339 337 336 334 333 331 330 331 333 333 332 331 328 327 330 331 324 314 304 296 289 283 279 274 268 261 258 259 259 253 245 242 244 245 243 244 244
306 308 310 312 316 320 324 327 329 330 332 334 336 340 343 345 347 349 351 353 355 357 1 7 12 14 16 19 20 18 16 17 19 19 19 19 17 16 14 12 8 4 360 355 350 347 346 345 344 343 341 340 339 337 336 335 337 338 338 337 336 335 335 335 333 328 321 311 299 287 278 272 265 261 260 260 257 252 246 243 244 244 241 238 235
305 306 309 313 318 323 326 328 329 330 332 335 337 338 340 343 346 349 352 354 356 358 0 4 8 13 16 18 18 18 18 19 20 20 20 20 20 19 18 16 14 12 9 5 1 357 354 353 353 351 349 348 347 346 344 342 341 340 340 341 342 344 345 344 343 343 340 333 320 304 293 284 274 266 263 261 257 251 246 242 240 239 236 232 229
303 305 308 313 319 325 327 328 329 329 332 335 336 335 337 340 343 347 351 354 357 0 3 4 6 10 14 15 16 16 17 18 19 19 19 19 20 20 19 18 17 16 14 12 10 8 8 7 6 3 360 356 354 354 354 352 349 347 345 344 345 347 349 351 354 357 358 357 353 344 334 320 301 283 270 262 256 250 244 239 236 233 230 226 224
302 303 306 312 320 324 325 326 328 329 330 333 334 333 333 336 340 345 349 352 356 0 3 5 7 9 12 14 15 15 16 16 17 17 18 18 18 19 19 19 18 17 17 16 15 15 16 17 18 18 16 12 7 3 1 360 359 357 353 351 349 350 352 355 358 360 1 3 3 359 358 353 330 301 280 267 258 250 243 237 233 230 226 224 222
300 301 306 313 319 322 323 326 329 329 329 332 334 334 334 335 338 342 345 348 352 357 1 4 7 9 11 13 14 15 15 15 15 16 16 16 16 17 18 19 19 19 18 18 18 19 20 21 23 26 27 27 25 21 16 12 9 7 4 2 360 358 359 2 5 7 8 11 10 4 1 3 354 325 298 279 264 253 244 236 233 229 225 223 220
300 302 308 314 318 320 321 324 327 329 331 332 334 336 337 337 338 340 343 345 348 353 357 0 4 7 10 12 13 14 15 16 15 16 16 16 17 16 16 17 19 19 19 19 19 20 22 23 25 27 31 33 35 34 31 28 26 23 20 19 17 16 16 18 21 24 24 24 23 21 16 12 5 343 313 282 258 245 234 226 222 220 217 216 213
301 305 309 314 315 316 318 320 323 326 330 333 334 336 337 337 338 340 341 342 345 349 352 356 359 3 7 10 11 12 14 15 15 16 17 17 17 18 18 18 19 19 20 20 19 20 22 24 25 26 28 31 35 37 37 36 34 33 33 33 31 30 30 31 33 34 34 33 33 33 31 28 24 11 344 278 233 222 213 205 202 200 199 199 197
303 306 310 313 314 314 316 318 321 324 328 331 333 335 337 336 337 339 340 340 343 346 348 351 355 358 1 5 7 8 10 11 13 14 15 16 16 17 18 19 20 20 21 21 21 20 20 23 25 27 27 28 30 34 36 36 36 35 35 37 38 38 39 40 41 40 39 38 39 39 38 39 44 49 57 84 137 166 174 176 177 177 177 177 177
303 306 310 313 314 314 315 317 318 320 324 327 329 332 334 335 336 336 336 337 338 341 343 347 350 352 354 357 359 1 4 6 7 8 10 11 13 14 15 16 19 20 21 22 22 21 20 20 22 25 27 28 29 30 32 33 35 34 34 36 39 42 43 44 45 45 45 44 45 45 45 47 53 62 71 80 93 112 130 144 151 155 159 163 167
302 306 309 310 312 313 314 314 314 315 317 320 324 326 329 332 333 334 334 333 334 336 338 341 344 347 348 349 351 354 356 358 0 2 4 5 7 9 10 11 13 16 18 19 21 21 21 20 20 22 25 28 29 30 30 31 32 34 35 37 39 41 44 46 47 48 50 51 52 54 57 59 62 67 71 74 80 92 105 118 129 137 144 152 159